Overview Statistics Trail Chart Weather Telemetry Raw packets
 

This is the latest recevied weather packets stored in our database for station/object KF0WJA. If no packets are shown the sender has not sent any weather packets the latest 10 day(s).

<< 45 46 47 48 49 50 51 >>
Time Temp. Humidity Pressure Rain* Wind** Luminosity Snow
1788357051 28.89° C 62% 1018.7 hPa 0 mm - 147 W/m² -
1788356746 28.33° C 63% 1018.6 hPa 0 mm - 124 W/m² -
1788356446 28.33° C 63% 1018.4 hPa 0 mm - 120 W/m² -
1788356147 27.78° C 64% 1018.7 hPa 0 mm - 61 W/m² -
1788355841 27.22° C 65% 1019 hPa 0 mm - 56 W/m² -
1788355536 27.22° C 65% 1018.6 hPa 0 mm - 52 W/m² -
1788355232 27.22° C 67% 1018.5 hPa 0 mm - 51 W/m² -
1788354928 26.67° C 67% 1018.5 hPa 0 mm - 48 W/m² -
1788354632 26.67° C 67% 1018.6 hPa 0 mm - 46 W/m² -
1788354324 26.67° C 68% 1018.4 hPa 0 mm - 44 W/m² -
1788354019 26.11° C 68% 1018.4 hPa 0 mm - 41 W/m² -
1788353715 26.11° C 69% 1018.3 hPa 0 mm - 43 W/m² -
1788353410 25.56° C 69% 1018.3 hPa 0 mm - 37 W/m² -
1788353107 25.56° C 70% 1018.4 hPa 0 mm - 35 W/m² -
1788352801 25.56° C 70% 1018.1 hPa 0 mm - 32 W/m² -
1788352498 25° C 71% 1018.1 hPa 0 mm - 27 W/m² -
1788352196 25° C 71% 1018.3 hPa 0 mm - 23 W/m² -
1788351892 25° C 71% 1018.2 hPa 0 mm - 19 W/m² -
1788351587 25° C 72% 1018 hPa 0 mm - 15 W/m² -
1788351287 25° C 72% 1018 hPa 0 mm - 12 W/m² -
1788350982 25° C 71% 1017.9 hPa 0 mm - 7 W/m² -
1788350679 25° C 71% 1017.8 hPa 0 mm - 5 W/m² -
1788350378 25° C 71% 1018 hPa 0 mm - 2 W/m² -
1788350074 25° C 71% 1017.7 hPa 0 mm - 0 W/m² -
1788349771 25° C 70% 1017.8 hPa 0 mm - 0 W/m² -

* Rain latest hour (hover to see other rain measurements)
** Current wind speed in m/s (hover to see current wind gust speed)